Probability
2 7 13 15 14 13 11 9 7 4 3 1 0 0 0 0 0 0 0 0 0 0 0 0 0 0 0 0 0 0 0 0 0 0 0 0 0 0 0 0 0 0 0
4 8 13 15 14 13 11 10 8 5 3 2 1 0 0 0 0 0 0 0 0 0 0 0 0 0 0 0 0 0 0 0 0 0 0 0 0 0 0 0 0 0 0
6 8 11 13 14 13 11 10 9 7 4 2 1 0 0 0 0 0 0 0 0 0 0 0 0 0 0 0 0 0 0 0 0 0 0 0 0 0 0 0 0 0 0
6 7 9 12 14 13 11 10 10 8 6 3 1 0 0 0 0 0 0 0 0 0 0 0 0 0 0 0 0 0 0 0 0 0 0 0 0 0 0 0 0 0 0
6 6 8 12 14 13 10 9 10 9 8 5 1 0 0 0 0 0 0 0 0 0 0 0 0 0 0 0 0 0 0 0 0 0 0 0 0 0 0 0 0 0 0
5 5 7 11 13 11 9 9 9 9 8 6 2 0 0 0 0 0 0 0 0 0 0 0 0 0 0 0 0 0 0 0 0 0 0 0 0 0 0 0 0 0 0
6 5 5 8 10 9 8 7 7 7 6 4 2 0 0 0 0 0 0 0 0 0 0 0 0 0 0 0 0 0 0 0 0 0 0 0 0 0 0 0 0 0 0
8 6 5 6 9 9 8 6 5 4 3 2 1 0 0 0 0 0 0 0 0 0 0 0 0 0 0 0 0 0 0 0 0 0 0 0 0 0 0 0 0 0 0
8 7 5 4 6 7 6 6 4 3 2 1 0 0 0 0 0 0 0 0 0 0 0 0 0 0 0 0 0 0 0 0 0 0 0 0 0 0 0 0 0 0 0
5 6 3 2 2 2 3 3 3 2 1 0 0 0 0 0 0 0 0 0 0 0 0 0 0 0 0 0 0 0 0 0 0 0 0 0 0 0 0 0 0 0 0
3 4 3 1 1 0 0 1 1 1 0 0 0 0 0 0 0 0 0 0 0 0 0 0 0 0 0 0 0 0 0 0 0 0 0 0 0 0 0 0 0 0 0
2 4 4 3 2 1 0 0 0 0 0 0 0 0 0 0 0 0 0 0 0 0 0 0 0 0 0 0 0 0 0 0 0 0 0 0 0 0 0 0 0 0 0
1 2 3 3 2 1 0 0 0 0 0 0 0 0 0 0 0 0 0 0 0 0 0 0 0 0 0 0 0 0 0 0 0 0 0 0 0 0 0 0 0 0 0
0 1 2 2 1 0 0 0 0 0 0 0 0 0 0 0 0 0 0 0 0 0 0 0 0 0 0 0 0 0 0 0 0 0 0 0 0 0 0 0 0 0 0
0 0 1 1 0 0 0 0 0 0 0 0 0 0 0 0 0 0 0 0 0 0 0 0 0 0 0 0 0 0 0 0 0 0 0 0 0 0 0 0 0 0 0
0 0 0 0 1 1 1 0 0 0 0 0 0 0 0 0 0 0 0 0 0 0 0 0 0 0 0 0 0 0 0 0 0 0 0 0 0 0 0 0 0 0 0
0 0 0 0 1 1 1 0 0 0 0 0 0 0 0 0 0 0 0 0 0 0 0 0 0 0 0 0 0 0 0 0 0 0 0 0 0 0 0 0 0 0 0
0 0 0 0 0 1 1 1 0 0 0 0 0 0 0 0 0 0 0 0 0 0 0 0 0 0 0 0 0 0 0 0 0 0 0 0 0 0 0 0 0 0 0
0 0 0 0 0 1 2 2 1 0 0 0 0 0 0 0 0 0 0 0 0 0 0 0 0 0 0 0 0 0 0 0 0 0 0 0 0 0 0 0 0 0 0
0 0 0 0 0 1 2 3 2 1 0 0 0 0 0 0 0 0 0 0 0 0 0 0 0 0 0 0 0 0 0 0 0 0 0 0 0 0 0 0 0 0 0
0 0 0 0 0 1 2 3 3 1 0 0 0 0 0 0 0 0 0 0 0 0 0 0 0 0 0 0 0 0 0 0 0 0 0 0 0 0 0 0 0 0 0
0 0 0 0 0 1 3 3 3 2 1 0 0 0 0 0 0 0 0 0 0 0 0 0 0 0 0 0 0 0 0 0 0 0 0 0 0 0 0 0 0 0 0
0 1 1 0 1 2 3 3 3 2 1 0 0 0 0 0 0 0 0 0 0 0 0 0 0 0 0 0 0 0 0 0 0 0 0 0 0 0 0 0 0 0 0
1 2 2 1 1 3 3 3 3 1 1 0 0 0 0 0 0 0 0 0 0 0 0 0 0 0 0 0 0 0 0 0 0 0 0 0 0 0 0 0 0 0 0
1 2 3 3 3 3 3 3 3 1 0 0 0 0 0 0 0 0 0 0 0 0 0 0 0 0 0 0 0 0 0 0 0 0 0 0 0 0 0 0 0 0 0
0 1 3 4 4 3 3 3 3 2 1 0 0 0 0 0 0 0 0 0 0 0 0 0 0 0 0 0 0 0 0 0 0 0 0 0 0 0 0 0 0 0 0
Wind_Speed
13 17 22 21 20 19 17 17 16 16 15 15 16 16 16 16 16 15 15 15 15 16 16 16 17 17 17 17 17 17 16 16 17 18 19 18 18 18 18 18 16 11 17
16 19 23 22 21 19 18 17 16 16 15 16 16 16 16 16 15 15 15 15 15 15 16 16 16 16 16 16 16 15 15 14 14 15 17 16 17 17 17 17 16 11 16
19 20 20 22 21 19 18 18 17 16 16 16 15 16 16 15 15 15 15 15 15 16 16 16 16 16 16 15 15 14 13 11 11 11 14 8 10 16 16 16 15 15 15
19 18 18 21 21 20 19 18 17 16 16 16 15 16 15 15 15 15 15 15 15 15 15 15 16 15 15 14 14 13 11 10 11 12 9 8 7 14 15 15 14 14 14
18 17 18 21 21 20 19 19 18 17 16 16 16 16 15 15 15 15 15 15 15 15 15 14 15 15 14 14 13 11 10 10 11 11 7 7 6 12 14 14 14 14 14
17 16 18 21 21 20 20 19 18 17 16 16 16 16 16 15 15 15 15 15 14 14 14 14 14 14 13 13 12 10 9 10 9 7 8 7 5 11 13 13 13 13 13
17 17 18 21 22 21 20 19 18 17 17 16 16 15 16 15 15 15 14 14 14 13 13 13 13 13 12 12 10 9 9 9 6 6 7 6 7 12 13 13 12 13 13
16 17 17 21 21 20 20 19 18 17 17 16 16 15 16 15 15 14 14 13 13 13 13 13 13 12 11 11 9 7 8 8 7 8 7 6 10 11 12 12 12 12 13
16 16 15 14 16 18 18 18 18 17 17 16 15 15 15 15 15 14 14 13 13 13 12 12 12 11 11 9 7 5 6 8 4 4 8 5 9 11 12 12 12 12 13
15 16 15 14 13 12 12 15 16 15 16 15 15 14 13 13 14 14 12 12 12 12 11 11 11 10 10 8 5 3 5 6 3 6 5 5 10 10 11 12 13 13 13
14 14 15 14 13 12 12 14 13 14 14 14 13 14 11 7 8 8 10 12 12 11 11 10 10 9 8 6 3 1 3 0 5 5 4 7 9 10 11 11 12 12 13
15 15 14 14 14 13 12 11 8 8 9 8 8 8 6 6 6 8 12 11 11 10 10 10 9 8 5 3 2 2 2 2 5 5 4 9 8 8 10 11 11 11 12
14 14 14 14 14 12 10 9 6 6 6 7 9 8 6 6 6 6 4 5 6 7 4 6 5 3 3 2 1 1 2 2 3 4 4 9 8 8 9 10 10 11 11
14 14 14 14 13 12 11 9 7 6 6 6 8 9 6 5 5 6 4 4 4 3 4 3 3 3 3 3 2 2 2 2 3 4 4 9 8 8 8 9 9 9 10
14 14 14 14 14 12 11 8 8 8 7 7 7 7 7 6 6 6 5 4 4 4 4 3 2 3 3 3 2 2 2 2 4 5 4 8 8 7 8 8 8 8 8
16 15 14 15 15 13 10 9 8 8 7 8 7 7 8 6 6 5 5 5 4 4 4 3 3 3 2 2 2 2 2 3 4 5 5 5 7 7 7 7 7 7 7
16 16 14 14 15 14 12 10 8 8 8 7 7 8 8 7 7 6 5 5 4 4 4 3 3 3 3 2 2 2 2 3 2 4 5 4 4 5 6 5 5 5 6
15 16 16 14 15 14 12 10 7 8 8 7 7 7 8 8 8 6 5 5 5 4 4 3 3 3 3 2 2 2 2 2 2 3 3 4 3 3 4 5 4 4 4
17 17 17 15 15 14 12 9 8 7 7 7 7 6 8 8 8 6 5 5 6 4 4 4 3 3 3 2 2 2 1 2 2 2 2 3 3 4 3 4 4 3 2
16 17 17 16 14 13 11 9 7 7 7 7 7 7 9 8 9 7 5 6 6 5 4 4 4 3 3 3 2 2 1 1 1 2 2 3 3 3 3 3 3 2 2
15 17 18 17 16 13 12 11 11 10 8 7 7 9 10 9 9 8 6 6 6 6 6 6 5 5 3 3 3 1 1 1 2 2 2 2 3 3 3 3 2 2 2
17 18 19 19 18 16 13 11 9 8 7 7 6 8 10 10 10 8 8 7 7 6 6 6 6 4 3 3 3 2 1 1 2 2 2 2 2 2 3 3 3 3 2
16 18 18 20 19 17 14 10 9 7 7 7 9 9 10 10 10 9 9 8 7 7 6 7 7 7 4 3 3 4 3 3 1 1 3 3 3 3 3 3 4 3 3
16 17 17 18 19 18 16 15 16 14 12 11 10 8 9 11 11 10 10 9 8 7 7 7 7 5 6 4 3 2 2 3 3 1 2 3 4 4 4 3 4 4 4
16 16 16 17 18 18 18 17 17 12 10 8 8 11 11 11 11 11 11 10 9 7 8 8 7 7 5 5 4 3 2 0 1 3 2 2 2 3 3 4 3 3 4
15 15 16 17 17 18 19 18 18 16 13 13 12 13 12 9 9 12 11 11 10 8 8 8 8 9 6 6 4 4 4 3 3 3 3 2 3 3 3 3 3 3 3
Wind_Direction
140 151 155 153 149 145 141 138 132 127 123 120 115 111 108 105 103 101 98 97 94 90 87 85 83 81 79 77 76 75 75 75 75 73 68 64 62 61 57 55 56 49 52
141 149 154 152 149 146 142 138 134 130 126 122 118 114 110 108 106 104 102 100 97 93 90 88 85 82 80 79 78 78 77 77 78 77 74 65 62 61 60 57 58 55 53
140 147 154 152 149 147 143 139 136 133 130 126 122 117 115 112 109 107 104 101 98 95 92 90 87 84 82 81 80 78 77 71 61 65 76 69 59 60 59 57 56 55 53
140 146 153 151 149 147 145 141 139 136 133 129 126 122 119 116 113 109 106 103 99 96 94 92 91 88 85 83 81 80 75 60 50 60 67 60 51 59 58 56 54 53 52
139 147 149 151 149 148 146 143 140 137 135 132 128 126 122 119 115 111 108 105 102 100 98 96 95 92 88 85 83 80 68 49 49 63 67 64 48 56 57 54 52 51 50
140 144 148 152 151 149 146 145 142 140 137 134 130 128 124 120 116 113 110 108 107 105 103 100 97 94 90 87 83 75 55 41 55 62 61 54 43 53 54 52 51 49 49
142 141 150 153 152 150 148 147 145 143 141 137 134 131 127 123 120 117 115 113 112 110 108 104 101 97 92 88 83 69 42 28 73 72 69 53 43 51 51 48 48 47 46
139 141 151 155 152 151 150 150 148 145 142 141 138 134 130 127 125 123 121 118 115 112 110 107 104 100 95 90 82 61 32 23 60 77 72 53 47 51 51 49 48 46 47
138 143 151 154 152 151 151 151 149 148 146 145 141 136 133 133 132 128 125 122 120 117 114 110 108 103 98 93 85 55 19 6 39 69 73 49 45 48 51 52 51 51 51
142 147 154 155 153 151 150 150 149 148 148 146 139 133 133 135 134 132 129 127 125 122 118 114 110 107 104 102 94 35 348 341 67 72 65 47 48 48 51 53 53 53 53
149 153 158 158 156 154 153 152 148 147 147 142 135 134 135 135 131 133 129 131 130 127 124 122 120 120 119 123 138 277 317 296 87 80 60 51 50 49 54 55 55 55 52
160 160 161 161 158 157 156 150 151 149 146 146 142 145 152 146 140 133 131 136 136 134 131 133 138 142 145 158 201 240 287 75 92 91 70 60 53 54 58 59 57 54 52
163 162 163 161 160 157 151 155 156 151 154 158 154 161 159 139 130 124 134 134 135 140 141 146 157 187 172 146 165 142 35 52 83 90 75 67 58 60 64 61 59 57 57
166 167 164 161 160 157 154 159 156 153 161 162 160 166 157 142 139 144 149 156 157 160 154 168 186 178 146 144 137 106 74 58 92 101 86 76 65 64 64 63 59 59 57
170 170 168 163 162 159 157 161 161 158 164 161 160 170 154 144 150 152 160 158 164 156 157 177 174 150 140 125 112 110 110 91 97 105 98 87 77 69 67 64 59 56 59
173 173 169 167 164 161 161 163 164 162 163 161 160 168 155 151 157 159 159 157 159 149 159 171 166 140 129 117 115 101 93 88 97 116 124 100 90 82 74 65 58 54 54
174 172 172 170 166 165 165 166 164 162 161 159 160 167 161 158 160 163 155 155 154 154 158 161 147 124 120 119 114 90 75 72 83 112 127 132 115 96 89 73 61 53 49
172 173 173 173 171 168 168 167 161 162 160 159 160 165 165 164 162 162 153 156 156 152 151 148 136 127 127 130 120 103 95 81 79 98 111 126 133 125 110 100 77 57 48
174 173 173 173 174 170 166 164 160 160 161 161 162 165 169 167 163 158 155 157 154 149 151 153 142 139 137 128 120 111 107 121 120 110 121 120 120 125 133 131 122 97 55
174 173 173 172 173 168 162 163 160 163 167 166 168 169 170 170 167 160 156 162 156 152 157 156 151 142 140 142 125 110 117 138 146 157 157 139 141 147 151 154 151 151 156
174 172 173 173 174 170 172 174 174 176 175 173 174 174 174 173 171 166 163 166 160 160 166 163 150 149 147 133 109 96 300 224 190 179 169 163 167 163 162 171 169 164 183
177 174 174 176 177 178 179 179 176 169 172 173 173 180 181 178 175 173 168 169 164 161 168 168 152 150 160 157 147 142 186 301 280 208 180 180 180 169 186 190 181 178 179
179 177 178 178 179 181 175 168 163 161 165 176 184 187 187 183 180 175 174 170 171 168 174 173 164 158 164 187 180 159 161 202 217 244 218 198 196 193 203 200 194 194 193
181 178 178 178 179 180 175 176 175 179 183 187 182 181 182 186 183 179 178 177 176 175 175 177 170 164 158 175 204 207 178 157 149 206 269 233 214 210 208 202 195 200 198
180 177 178 177 180 180 180 182 182 185 186 174 172 178 184 189 188 184 183 182 181 180 180 179 172 171 168 168 172 173 198 210 177 159 222 249 249 236 214 202 195 201 200
179 176 176 178 181 180 182 184 186 186 182 176 178 183 185 186 188 189 187 187 185 182 182 181 177 175 177 176 174 168 165 172 197 185 198 213 227 237 220 208 201 203 198